www.pogodaiklimat.ru

Погода и климат >> Архив погоды >> Россия >> Приморский край >> Ольга


ПОГОДА в Ольге

  • Прогноз погоды в Ольге
  • Монитор погоды в Ольге

АРХИВ ПОГОДЫ в Ольге

Время (UTC), дата Ветер
(напр.,м/с)
 
Видим.   Явления Облачность Т
(С)
Тd
(С)
f
(%)
Тe
(С)
Тes
(С)
Комфортность P
(гПа)
Po
(гПа)
Тmin
(С)
Tmax
(С)
R
(мм)
R24
(мм)
S
(см)
00 17.01 СЗ 3
{11}
50 км {метель} 8/8 1000 м
[Sc diur, vesp]
-16.0 -28.0 35 -23 -22 1010.9 1008.3
03 17.01 З 6-15
{18}
50 км позёмок 5/5 1000 м
[Sc diur, vesp]
-16.7 -30.1 30 -27 -26 1010.9 1008.2
06 17.01 З 6-14
{18}
50 км позёмок 3/0
[Ci fib]
-16.4 -32.6 23 -26 -26 1009.5 1006.9
09 17.01 З 3
{16}
10 км {метель} ясно -17.1 -31.2 28 -24 -24 1012.0 1009.3 -13.7
12 17.01 СЗ 7-21
{21}
10 км позёмок ясно -16.2 -30.6 28 -27 -27 1012.6 1010.0
15 17.01 З 4
{21}
10 км {метель} ясно -15.7 -29.9 28 -24 -24 1014.6 1011.9
18 17.01 З 2
{12}
10 км {метель} ясно -15.7 -29.2 30 -21 -21 1015.9 1013.3
21 17.01 З 3 10 км ясно -15.5 -28.2 33 -22 -22 1016.7 1014.0 -17.1 1
00 18.01 З 3 50 км ясно -13.4 -26.9 31 -20 -18 1018.2 1015.6
03 18.01 З 4 50 км ясно -9.0 -25.0 26 -15 -12 1018.2 1015.6
06 18.01 З 6-11
{11}
50 км ясно -7.3 -26.0 21 -15 -14 1017.4 1014.9
09 18.01 З 2
{14}
10 км ясно -9.2 -26.6 23 -13 -13 1019.2 1016.6 -6.9
12 18.01 ЮЗ 1 10 км ясно -9.7 -25.7 26 -12 -12 1020.4 1017.8
15 18.01 З 2 10 км ясно -9.7 -24.8 28 -14 -14 1020.4 1017.8
18 18.01 С 1 10 км ясно -16.7 -25.0 49 -19 -19 1020.7 1018.0
21 18.01 СВ 2 10 км ясно -20.7 -25.4 66 -27 -27 1020.8 1018.1 -21.4 <0.5
00 19.01 СВ 2 50 км ясно -16.0 -21.9 60 -21 -20 1021.0 1018.3 -22.9
03 19.01 З 3 50 км ясно -2.1 -26.1 14 -6 -2 1018.7 1016.2
06 19.01 З 3 50 км ясно +0.4 -20.3 19 -3 -2 1017.0 1014.6
09 19.01 З 2 10 км 1/0
[Ci fib]
-3.6 -23.0 21 -7 -7 1017.0 1014.5 +0.5
12 19.01 штиль 0 10 км 10/0
[Cs]
-13.7 -21.5 52 -14 -14 1017.0 1014.4
15 19.01 штиль 0 10 км 10/0
[Cs]
-13.8 -20.0 59 -14 -14 1015.2 1012.6
18 19.01 штиль 0 10 км 10/0
[Cs]
-14.2 -18.5 70 -14 -14 1013.4 1010.8
21 19.01 СЗ 1 10 км 10/0
[Ac trans Cs]
-11.9 -19.3 54 -14 -14 1011.7 1009.1 -15.0 0
00 20.01 З 2 50 км 8/1 1000 м
[Sc Ac trans Ci fib]
-7.4 -19.6 37 -11 -10 1011.0 1008.4
03 20.01 З 4
{11}
50 км 4/1 1000 м
[Sc Ac trans Ci fib]
-5.3 -21.6 26 -11 -8 1008.3 1005.8

 

Местоположение метеостанции Ольга (Приморский край, Россия): широта 43.75 долгота 135.30 высота над уровнем моря 20 м.

В архиве по умолчанию представлена погода в Ольге за последнюю неделю. Архивные данные за месяц целиком и за предыдущие месяцы, начиная с января 2011 года, Вы можете получить, выбрав интересующий диапазон дат из раскрывающегося списка и нажав кнопку "Ввод!".


*Определитесь, кто Вы:
робот инопланетянин человек

Внимание! Время в таблицах - всемирное. Для получения местного времени необходимо прибавить поправку, которая равна 10 ч.

Смотрите также архив погоды в соседних городах и на ближайших метеорологических станциях:

Погода в Дальнегорске (Приморский край, Россия) (31 км)
Погода в Богополе (Приморский край, Россия) (56 км)
Погода в Кавалерово (Приморский край, Россия) (61 км)
Погода в Рудной Пристани (Приморский край, Россия) (80 км)
Погода в Лучегорске (Приморский край, Россия) (81 км)
Погода в Лазо (Приморский край, Россия) (127 км)
Погода в Чугуевке (Приморский край, Россия) (128 км)
Погода в Преображении (Приморский край, Россия) (148 км)
Погода в Тернее (Приморский край, Россия) (173 км)
Погода в Анучино (Приморский край, Россия) (186 км)

Пояснения к столбцам:

Ветер - указаны скорость ветра в м/с - средняя за 10 мин, порывы в срок и между сроками (в фигурных скобках) и направление, откуда дует ветер: С - северный, СВ - северо-восточный, В - восточный, ЮВ - юго-восточный, Ю - южный, ЮЗ - юго-западный, З - западный, СЗ - северо-западный.
Видимость - горизонтальная дальность видимости в метрах или километрах. При видимости от 1 до 10 км при отсутствии осадков обычно наблюдается дымка, при ухудшении видимости до 1 км и менее - туман. В сухую погоду видимость может ухудшаться дымом, пылью или мглою.
Явления - указаны атмосферные явления, наблюдавшиеся в срок или в последний час перед сроком; фигурными скобками обозначены явления, наблюдавшиеся между сроками (за 1-3 часа до срока); квадратными скобками обозначены град или гололедные отложения с указанием их диаметра в мм.
Облачность - указаны через наклонную черту общая и нижняя облачность в баллах и высота нижней границы облаков в метрах; квадратными скобками обозначены формы облаков: Ci - перистые, Cs - перисто-слоистые, Cc - перисто-кучевые, Ac - высококучевые, As - высокослоистые, Sc - слоисто-кучевые, Ns - слоисто-дождевые, Cu - кучевые, Cb - кучево-дождевые. Подробнее классификацию облаков см. в Атласе облаков (PDF).
T - Температура воздуха - температура, измеренная на высоте 2 м над землей.
Td - Температура точки росы - температура, при понижении до которой содержащийся в воздухе водяной пар достигнет насыщения.
f - Относительная влажность воздуха - влажноcть воздуха, измеренная на высоте 2 м над землей.
Te - Эффективная температура - температура, которую ощущает одетый по сезону человек в тени. Характеристика душности погоды. При расчете учитывается влияние влажности воздуха и скорости ветра на теплоощущения человека.
Tes - Эффективная температура на солнце - температура, которую ощущает человек, с поправкой на солнечный нагрев. Характеристика знойности погоды. Зависит от высоты солнца над горизонтом, облачности и скорости ветра. Ночью, в пасмурную погоду, а также при ветре 12 м/с и более поправка равна нулю.
P - Атмосферное давление - приведенное к уровню моря атмосферное давление.
Po - Атмосферное давление - измеренное на уровне метеостанции атмосферное давление.
Tmin - Минимальная температура - минимум температуры воздуха на высоте 2 м над землей.
Tmax - Максимальная температура - максимум температуры воздуха на высоте 2 м над землей.
R - Количество осадков - Количество выпавших осадков за период времени, мм. При наведении курсора мыши на число - период времени, за который выпало указанное количество осадков.
R24 - Количество осадков - Количество выпавших осадков за 24 часа, мм.
S - Снежный покров - Высота снежного покрова, см. При наведении курсора мыши на число - состояние снежного покрова и степень покрытия местности в баллах.